Location: Boiro
(42.6475°N, 8.8834°W)
Time: 18:42:35
(UTC+01:00)

Explorer 11/Cluster Stage 4 - Pass Details

Date: 02 December 2021
Orbit: 467 x 1255 km, 28.8° (Epoch: 23 January)

Event Time Altitude Azimuth Distance (km) Brightness Sun altitude
Exits shadow 06:33:04 20° 221° (SW) 2,433 8.8 -24.0°
Maximum altitude 06:36:49 29° 181° (S) 2,075 8.7 -23.3°
Drops below altitude 10° 06:43:37 10° 126° (SE) 3,223 10.6 -22.1°
Sets 06:46:57 0° 116° (ESE) 4,172 11.6 -21.5°
